Wind_Speed
61 60 60 60 57 57 57 55 56 56 49 49 47 46 48 45 47 49 52 51 54 59 62 64 71 76 78 79 86 89 90 88 83 83 78 72 68 61 57 55 48 52 53 53
62 63 66 62 60 61 59 60 61 61 58 57 54 53 54 50 46 46 50 52 55 55 56 59 62 70 76 80 81 83 88 89 91 88 85 80 75 70 64 59 56 60 60 57
63 66 67 66 65 65 64 63 64 66 63 63 61 61 60 58 57 53 49 49 53 56 58 59 59 63 66 72 79 83 84 85 88 91 90 85 84 79 73 71 64 65 64 63
67 66 66 68 68 68 67 67 67 67 66 70 65 68 65 65 63 60 57 53 49 52 54 57 59 61 63 64 68 79 84 86 87 87 88 91 89 88 86 79 73 67 73 72
71 72 70 67 67 68 72 71 71 71 72 74 68 72 74 67 68 65 64 61 56 53 51 53 54 53 57 61 65 67 72 81 88 90 90 90 92 96 93 86 84 80 76 77
80 72 73 71 69 69 69 72 74 74 76 75 77 75 80 74 69 72 70 67 64 61 58 58 56 54 52 55 58 65 71 71 76 85 91 92 94 97 98 96 97 93 89 83
87 83 78 77 74 72 71 71 72 76 79 74 83 79 82 77 71 75 73 72 70 67 65 64 63 61 56 56 57 62 67 73 76 77 82 91 95 96 96 98 102 103 101 97
90 88 86 81 82 80 78 77 77 77 77 78 77 78 82 77 76 75 75 73 70 70 70 69 67 67 65 61 60 61 62 66 71 77 79 79 88 95 100 100 98 100 102 104
90 93 87 88 88 88 85 85 81 80 81 81 79 78 80 79 81 78 79 77 76 75 74 72 72 72 72 69 66 65 65 65 64 65 70 77 81 85 90 99 104 102 101 100
83 92 92 90 91 92 92 89 88 87 86 84 84 85 84 81 81 82 81 81 79 78 77 77 78 78 78 75 72 70 70 70 70 69 68 68 72 80 85 86 92 99 106 104
75 81 84 89 95 96 95 96 95 94 92 91 91 92 88 87 86 86 84 84 84 84 82 82 81 83 83 82 81 78 77 76 75 74 74 72 70 72 78 85 85 90 94 100
61 71 77 81 85 92 96 99 99 98 97 98 98 98 96 94 93 91 88 88 88 88 88 87 88 87 88 88 88 87 85 82 81 79 77 77 76 74 76 78 84 89 89 89
59 60 67 74 77 78 83 88 95 100 102 101 102 105 104 100 98 96 97 96 94 93 93 92 91 91 93 93 92 93 92 91 90 88 86 84 83 81 79 78 79 84 88 89
55 58 63 65 69 73 76 76 79 84 90 98 106 108 107 105 104 104 103 102 100 100 100 99 99 99 99 99 99 99 100 100 100 99 95 92 89 87 86 82 81 83 87 89
52 57 56 59 63 65 69 73 77 80 82 82 88 92 100 106 108 109 109 109 109 108 107 107 106 106 107 107 106 106 107 107 107 107 105 101 98 95 92 91 87 87 86 90
48 50 51 57 58 60 62 67 71 75 80 83 87 90 91 92 93 96 101 107 110 113 114 114 112 113 113 114 113 113 113 114 114 113 112 108 105 101 100 98 93 91 90 89
45 43 43 48 50 54 56 57 61 63 65 68 74 80 86 90 91 92 94 95 97 100 104 108 111 115 117 118 119 119 118 119 120 118 118 114 111 107 104 100 98 95 93 90
38 37 38 42 42 42 42 42 46 49 51 53 55 58 62 67 75 82 86 89 91 94 96 98 99 101 104 106 108 109 108 107 107 108 107 106 106 102 100 98 96 96 94 93
34 33 34 33 32 32 30 29 31 34 40 43 45 48 51 55 62 68 68 73 76 79 82 85 89 92 95 97 98 100 104 105 104 105 104 103 100 97 98 95 93 96 96 95
30 30 29 29 29 26 26 28 31 35 37 40 42 44 48 51 53 58 56 62 63 66 68 70 73 75 79 83 84 85 88 91 95 99 101 100 100 98 94 95 96 95 97 97
27 27 27 29 31 29 30 31 32 36 40 40 40 42 47 49 50 54 53 56 58 59 61 63 65 69 72 73 73 73 76 81 85 88 90 93 95 97 94 94 94 95 97 99
25 27 28 30 31 31 31 31 33 37 37 38 37 38 40 41 41 41 41 41 44 46 49 52 55 58 60 62 64 66 68 72 75 80 83 86 89 91 91 93 97 94 96 97
21 23 26 28 30 32 31 32 33 34 34 34 33 32 30 31 33 34 38 41 45 48 49 49 48 50 53 56 61 62 65 66 68 72 76 79 84 87 90 91 95 97 94 94
21 24 25 27 26 26 30 32 33 32 29 28 27 27 27 30 36 40 43 43 44 43 45 48 48 49 52 54 57 57 59 63 66 66 70 73 76 81 84 89 90 91 96 93
25 25 26 24 24 27 29 33 32 30 25 25 27 26 31 35 38 35 39 39 42 44 46 47 49 49 50 53 54 56 58 61 63 64 64 69 71 73 78 82 83 89 91 94
23 23 22 23 24 27 32 30 28 26 26 27 29 31 31 32 37 37 37 39 42 45 46 48 46 47 49 47 48 49 51 56 59 60 61 63 64 69 72 74 76 79 87 91
Wind_Direction
252 252 252 252 251 250 247 249 248 247 243 246 246 247 243 243 246 252 249 244 246 243 239 239 240 241 241 241 239 242 242 240 239 238 238 240 242 241 235 244 242 254 253 250
253 253 253 252 251 250 248 246 248 248 244 245 245 247 250 247 246 242 247 252 252 250 247 245 243 240 241 241 244 244 243 245 246 243 240 238 241 243 240 238 237 248 255 256
253 252 253 252 250 249 249 249 248 249 249 247 245 246 248 251 250 246 244 239 247 252 252 251 254 251 244 242 243 243 245 245 245 247 248 243 241 240 239 240 238 240 252 261
257 256 252 252 251 249 249 250 250 251 250 250 249 250 248 248 251 248 247 245 239 242 248 252 253 254 254 249 245 244 244 244 245 245 246 247 246 244 240 241 240 238 243 246
255 255 254 254 254 253 252 249 250 250 250 251 248 251 252 250 249 250 249 246 244 238 244 244 244 247 252 253 254 249 248 246 244 246 246 244 244 245 246 243 244 243 243 245
256 253 253 253 252 252 252 251 250 251 251 249 251 247 253 248 251 251 251 250 247 246 242 242 243 243 245 247 249 252 253 249 247 246 244 246 247 245 243 244 244 243 244 244
253 253 253 252 252 252 252 252 251 249 250 251 250 250 251 254 252 252 251 252 251 250 250 247 244 244 244 246 247 249 249 251 252 249 248 246 244 245 247 245 246 246 245 245
251 252 252 252 250 251 251 251 250 250 250 249 249 252 251 253 252 251 251 252 251 250 251 251 248 245 245 244 246 248 253 253 250 251 252 251 248 247 248 246 246 246 248 249
250 251 249 249 250 250 249 250 250 250 250 249 251 249 250 250 252 248 249 250 250 249 248 250 251 250 247 247 247 247 248 252 254 254 251 251 251 252 249 248 247 247 248 246
250 250 249 248 248 248 249 249 250 250 249 250 251 251 249 250 250 250 250 251 252 251 250 250 250 250 252 251 250 252 251 251 252 254 255 254 254 251 252 253 250 249 248 247
251 250 249 249 247 249 249 248 248 249 250 251 251 251 250 249 250 250 250 251 252 253 253 252 252 252 252 253 252 250 251 253 253 252 252 254 257 257 256 252 253 251 250 249
251 250 250 248 250 249 248 248 248 248 250 249 251 253 252 250 251 251 251 250 250 250 250 251 251 251 251 252 254 255 256 255 257 257 256 257 256 256 255 255 254 252 253 251
252 252 251 250 249 249 251 251 251 250 250 250 250 252 251 252 252 251 252 252 251 251 252 253 253 253 253 254 255 257 259 259 258 258 260 260 259 259 257 256 256 254 252 252
254 253 253 252 251 250 250 252 252 252 252 251 252 251 253 253 253 253 252 252 252 252 252 252 252 253 253 254 255 256 258 259 260 260 260 260 260 259 257 259 259 256 251 250
254 254 254 253 253 252 252 252 252 253 254 253 252 252 253 253 253 254 255 255 254 253 253 253 254 254 254 254 255 255 256 257 258 259 261 261 261 261 258 258 260 257 255 251
255 256 257 257 257 255 253 252 253 252 252 253 254 255 254 255 254 253 254 255 255 256 256 255 255 255 255 255 255 256 256 257 258 259 259 259 260 259 260 259 257 253 252 252
255 255 255 257 258 258 258 256 254 254 254 254 254 253 253 253 254 255 256 256 256 256 256 257 257 257 257 258 257 257 257 257 258 258 258 258 259 258 256 254 254 251 249 248
257 255 256 261 260 257 257 255 255 255 255 255 256 257 256 255 254 254 254 256 257 257 258 258 259 260 259 259 260 260 260 259 257 257 256 256 256 255 253 250 249 249 248 247
257 258 261 260 256 254 253 253 255 258 257 258 259 259 260 258 256 256 257 258 259 259 259 259 258 257 257 257 256 256 257 256 256 256 256 256 254 252 251 248 246 246 246 244
256 260 261 257 252 248 252 260 265 266 265 263 262 261 260 259 260 261 258 261 261 262 264 264 263 260 258 257 256 254 254 254 253 252 252 252 252 251 248 247 247 245 244 244
261 260 257 258 257 258 263 269 272 270 266 264 263 264 263 263 262 264 262 261 261 262 262 263 265 266 265 263 261 258 255 254 253 252 250 248 248 249 248 246 245 244 243 242
261 260 260 264 267 268 268 270 274 272 273 272 267 264 264 264 263 264 269 271 270 266 266 265 264 264 265 266 267 262 258 256 253 252 250 248 247 247 246 246 245 243 242 242
272 270 270 273 274 273 273 277 277 279 277 272 269 265 263 267 268 271 272 273 275 277 276 272 270 267 264 261 261 262 261 257 255 253 250 248 246 245 243 243 242 241 241 241
282 280 281 282 279 275 280 281 284 279 268 264 269 269 272 277 279 279 282 283 284 283 279 276 270 265 265 263 261 258 258 258 257 253 252 251 247 246 244 242 241 240 239 239
283 284 285 283 279 282 283 287 285 280 276 276 276 275 275 275 278 282 285 286 286 285 283 280 279 276 272 269 264 259 257 256 255 254 251 252 251 248 246 244 241 239 238 238
290 287 284 280 283 286 289 287 278 279 282 281 282 284 286 289 292 289 286 288 288 288 286 285 284 280 277 274 269 264 259 257 257 256 253 250 249 249 248 245 244 239 238 237
Height
10779 10781 10782 10784 10791 10794 10796 10796 10798 10801 10810 10809 10812 10811 10811 10816 10820 10823 10825 10830 10833 10832 10837 10840 10844 10847 10853 10858 10861 10865 10870 10873 10878 10882 10890 10901 10906 10911 10915 10917 10919 10917 10917 10918
10763 10763 10762 10771 10776 10777 10782 10783 10782 10786 10792 10795 10799 10798 10798 10803 10808 10811 10814 10816 10817 10820 10823 10824 10827 10830 10835 10842 10847 10851 10855 10861 10862 10868 10875 10886 10892 10901 10901 10903 10905 10905 10907 10908
10741 10745 10747 10752 10757 10760 10763 10767 10768 10769 10777 10779 10782 10784 10784 10789 10792 10797 10802 10805 10805 10806 10808 10812 10812 10815 10820 10825 10829 10834 10839 10845 10848 10852 10859 10871 10877 10881 10884 10884 10894 10898 10898 10897
10725 10726 10728 10730 10738 10743 10747 10750 10752 10755 10759 10757 10768 10766 10771 10773 10776 10781 10785 10791 10795 10796 10796 10800 10800 10801 10803 10807 10812 10815 10820 10827 10831 10837 10843 10852 10859 10863 10864 10870 10878 10884 10882 10883
10702 10705 10711 10716 10718 10724 10726 10731 10733 10737 10740 10738 10752 10748 10745 10758 10758 10764 10768 10774 10779 10783 10784 10785 10788 10788 10790 10790 10791 10796 10801 10807 10812 10818 10824 10829 10836 10840 10849 10861 10861 10864 10867 10867
10675 10688 10689 10695 10700 10702 10705 10710 10714 10718 10718 10724 10725 10732 10727 10734 10746 10744 10750 10756 10760 10765 10768 10770 10772 10775 10774 10775 10776 10777 10781 10786 10790 10797 10803 10812 10815 10819 10827 10837 10839 10844 10847 10853
10652 10661 10670 10674 10679 10682 10687 10689 10692 10695 10697 10709 10695 10707 10706 10718 10729 10728 10732 10736 10741 10746 10748 10752 10756 10758 10760 10759 10760 10762 10764 10768 10772 10777 10781 10788 10793 10799 10806 10815 10819 10823 10826 10836
10629 10636 10645 10656 10655 10658 10663 10665 10671 10673 10677 10680 10686 10691 10685 10700 10703 10707 10710 10716 10721 10725 10728 10732 10736 10740 10742 10744 10745 10748 10748 10751 10755 10759 10763 10767 10772 10778 10783 10791 10799 10802 10811 10820
10603 10603 10621 10625 10629 10632 10640 10641 10650 10654 10656 10657 10664 10671 10670 10677 10679 10684 10688 10692 10697 10703 10709 10713 10716 10719 10722 10726 10727 10730 10733 10735 10737 10740 10744 10748 10752 10756 10760 10767 10771 10782 10787 10799
10577 10580 10591 10599 10602 10607 10612 10622 10623 10628 10633 10638 10641 10644 10645 10655 10657 10660 10666 10671 10677 10682 10688 10692 10694 10697 10700 10704 10707 10710 10715 10719 10721 10723 10724 10727 10731 10735 10739 10744 10748 10758 10764 10772
10553 10557 10564 10570 10574 10579 10587 10591 10596 10601 10609 10613 10617 10617 10626 10629 10635 10638 10646 10650 10655 10658 10663 10667 10670 10674 10677 10680 10684 10689 10692 10695 10701 10704 10708 10710 10713 10715 10718 10724 10725 10732 10740 10748
10531 10535 10537 10545 10548 10551 10558 10564 10570 10576 10584 10586 10589 10591 10600 10607 10610 10616 10623 10626 10630 10634 10637 10641 10645 10650 10654 10657 10659 10664 10669 10674 10679 10684 10688 10690 10694 10697 10698 10702 10706 10713 10718 10722
10512 10515 10516 10522 10523 10531 10535 10540 10545 10550 10555 10563 10564 10564 10566 10577 10586 10592 10595 10600 10606 10611 10615 10619 10623 10627 10629 10633 10638 10641 10643 10647 10653 10659 10662 10667 10670 10674 10679 10681 10685 10690 10697 10701
10493 10494 10496 10500 10504 10511 10512 10517 10519 10522 10527 10535 10534 10534 10540 10551 10559 10562 10568 10573 10579 10583 10589 10593 10596 10600 10604 10609 10612 10614 10616 10619 10623 10627 10635 10639 10643 10649 10655 10659 10663 10667 10673 10680
10474 10474 10478 10481 10484 10489 10493 10494 10498 10501 10502 10507 10505 10510 10512 10519 10532 10534 10537 10541 10546 10551 10558 10564 10568 10572 10575 10579 10584 10589 10591 10594 10596 10599 10603 10610 10617 10622 10629 10635 10639 10645 10649 10656
10458 10459 10461 10462 10465 10467 10470 10474 10477 10479 10479 10483 10484 10485 10489 10494 10498 10503 10508 10512 10515 10520 10525 10529 10536 10539 10544 10548 10553 10557 10562 10564 10567 10570 10573 10581 10588 10595 10601 10607 10613 10618 10623 10631
10442 10446 10447 10446 10449 10448 10450 10454 10454 10456 10457 10459 10459 10462 10464 10469 10473 10478 10482 10483 10485 10488 10491 10495 10499 10503 10508 10512 10518 10523 10527 10531 10532 10538 10541 10548 10553 10563 10571 10578 10584 10590 10598 10605
10429 10432 10433 10433 10434 10435 10435 10437 10437 10438 10439 10440 10441 10441 10443 10448 10449 10450 10454 10455 10459 10462 10464 10466 10469 10472 10475 10478 10480 10484 10488 10492 10496 10500 10507 10515 10521 10529 10537 10547 10556 10563 10571 10580
10417 10419 10420 10421 10421 10423 10424 10424 10424 10425 10425 10426 10427 10427 10428 10428 10426 10426 10434 10434 10435 10436 10437 10439 10441 10443 10443 10444 10448 10451 10452 10456 10461 10465 10471 10479 10487 10497 10505 10516 10528 10536 10544 10555
10407 10409 10410 10411 10411 10413 10414 10416 10416 10414 10414 10414 10414 10413 10411 10411 10412 10409 10417 10412 10415 10413 10412 10410 10411 10413 10413 10414 10419 10424 10424 10424 10428 10432 10439 10449 10455 10464 10476 10486 10495 10506 10517 10527
10399 10400 10401 10402 10402 10405 10405 10405 10405 10402 10401 10402 10402 10400 10397 10397 10398 10394 10398 10396 10396 10396 10394 10393 10391 10387 10386 10388 10390 10395 10398 10397 10398 10402 10409 10419 10426 10433 10446 10455 10465 10475 10487 10499
10391 10392 10393 10393 10394 10395 10395 10394 10393 10389 10388 10387 10388 10387 10384 10383 10382 10381 10380 10379 10378 10378 10377 10375 10374 10370 10368 10368 10368 10369 10370 10371 10373 10375 10382 10390 10397 10406 10418 10425 10435 10447 10459 10470
10384 10385 10386 10386 10385 10383 10383 10381 10380 10378 10376 10374 10373 10372 10372 10370 10368 10367 10366 10364 10363 10360 10357 10355 10355 10352 10351 10351 10349 10348 10345 10346 10348 10351 10355 10361 10368 10377 10389 10396 10404 10418 10431 10443
10377 10377 10377 10376 10376 10375 10373 10370 10368 10367 10365 10363 10361 10360 10360 10358 10356 10355 10352 10351 10347 10343 10340 10338 10336 10333 10330 10328 10327 10328 10326 10325 10324 10328 10331 10335 10344 10350 10359 10368 10378 10390 10402 10416
10370 10370 10369 10368 10367 10366 10363 10360 10357 10354 10354 10353 10351 10351 10349 10348 10346 10344 10340 10337 10332 10328 10324 10320 10317 10314 10311 10307 10305 10305 10305 10303 10304 10306 10310 10313 10318 10325 10332 10339 10352 10364 10375 10389
10364 10363 10362 10360 10359 10357 10354 10351 10348 10347 10346 10344 10342 10340 10339 10338 10335 10331 10327 10324 10318 10312 10308 10303 10299 10295 10290 10286 10284 10284 10284 10283 10284 10285 10289 10294 10298 10302 10306 10317 10326 10338 10350 10363